Regional Weather Roundup
Issued by NWS

Home | Current Version | Previous Version | Graphics & Text | Print | Product List | Glossary On
Versions: 1 2 3 4 5 6 7 8 9 10 11 12 13 14 15 16 17 18 19 20 21 22 23 24 25 26 27 28 29 30 31 32 33 34 35 36 37 38 39 40 41 42 43 44 45 46 47 48 49 50
000
ASUS43 KIND 270259
RWRIN

WEATHER ROUNDUP FOR INDIANA
NATIONAL WEATHER SERVICE INDIANAPOLIS IN
1000 PM EST MON JAN 26 2015

NOTE: "FAIR" INDICATES FEW OR NO CLOUDS BELOW 12,000 FEET WITH NO
SIGNIFICANT WEATHER AND/OR OBSTRUCTIONS TO VISIBILITY.

* - STATION DOES NOT REPORT WEATHER SUCH AS PRECIPITATION OR FOG.

+ - STATION NOT QUALITY CONTROLLED BY THE NATIONAL WEATHER SERVICE.
    USE DATA WITH CAUTION...ESPECIALLY DEWPOINT AND RELATIVE
    HUMIDITY OBSERVATIONS.

INZ001>003-010>013-019-020-270400-
NORTHWEST INDIANA

CITY           SKY/WX    TMP DP  RH WIND       PRES   REMARKS
GARY /AIRPORT/ LGT SNOW  27  21  80 CALM      29.92S
VALPARAISO     NOT AVBL

$$

LMZ046-743>745-270400-
SOUTHERN LAKE MICHIGAN

STATION/POSITION TIME  TEMP WIND        PRES
                       AIR  DIR/SP/G
                 (UTC) (F)  (DEG/KT/KT) (MB)
MICHIGAN CITY    0200   24  120/  7/  9   N/A

$$

INZ004-005-014>016-021>024-270400-
NORTH CENTRAL INDIANA

CITY           SKY/WX    TMP DP  RH WIND       PRES   REMARKS
GOSHEN         CLOUDY    22  12  65 E5        29.94S WCI  16
SOUTH BEND     CLOUDY    24  15  68 SE7       29.94R WCI  16

$$

INZ006>009-017-018-025>027-270400-
NORTHEAST INDIANA

CITY           SKY/WX    TMP DP  RH WIND       PRES   REMARKS
ANGOLA *+      CLOUDY    18  12  79 CALM      29.93F
FORT WAYNE     CLOUDY    19  13  77 E5        29.95F WCI  12

$$

INZ028-029-035-036-043>045-051>053-270400-
WEST CENTRAL INDIANA

CITY           SKY/WX    TMP DP  RH WIND       PRES   REMARKS
GREENCASTLE +  CLOUDY    27  21  80 SW5       29.92S WCI  21
LAFAYETTE      CLOUDY    27  23  85 SW5       29.93S WCI  22
TERRE HAUTE    LGT SNOW  27  25  92 S3        29.94S FOG

$$

INZ030>032-037>040-046>048-054>057-064-065-270400-
CENTRAL INDIANA

CITY           SKY/WX    TMP DP  RH WIND       PRES   REMARKS
COLUMBUS       CLOUDY    27  21  80 CALM      29.94
INDIANAPOLIS   FLURRIES  26  21  81 SW5       29.91F WCI  20
-EAGLE CREEK   FLURRIES  28  21  75 CALM      29.91F
KOKOMO *+      CLOUDY    21  18  86 SE6       29.93S WCI  14
MT COMFORT *+  CLOUDY    27  18  69 E5        29.92F WCI  21
SHELBYVILLE    CLOUDY    28  21  75 CALM      29.92F

$$

INZ033-034-041-042-049-050-058-059-270400-
EAST CENTRAL INDIANA

CITY           SKY/WX    TMP DP  RH WIND       PRES   REMARKS
MUNCIE         CLOUDY    21  15  78 CALM      29.93S

$$

INZ060-061-067>069-081>083-085>088-270400-
SOUTHWEST INDIANA

CITY           SKY/WX    TMP DP  RH WIND       PRES   REMARKS
EVANSVILLE     CLOUDY    31  27  85 S3        29.97S FOG
HUNTINGBURG *+ MOCLDY    28  25  86 SE3       29.96F

$$

INZ062-063-066-070>080-084-089>092-270400-
SOUTH CENTRAL AND SOUTHEAST INDIANA

CITY           SKY/WX    TMP DP  RH WIND       PRES   REMARKS
BLOOMINGTON    CLOUDY    27  25  92 SW3       29.92F FOG
SEYMOUR +      CLOUDY    32  25  74 W7        29.95S WCI  26

$$




USA.gov is the U.S. government's official web portal to all federal, state and local government web resources and services.